sat.trackr.live / text

‹ back to catalog

STARLINK-35200

NORAD 65855 · 2025-223B

PAYLOAD ACTIVE UNKNOWN

§ Identity

Operator
Country
US
Launch date
2025-10-03
Launch site
AFWTR
Launch vehicle
Mass (kg)
RCS (m²)

Purposes: comms

External: N2YO · Heavens-Above · Gunter

§ Orbital elements

Epoch: 2026-09-20T06:31:04.126656Z

Period
93.85 min
Inclination
53.1584°
Eccentricity
0.0000940
Mean motion
15.34400236 rev/d
Perigee alt
462.1 km
Apogee alt
463.3 km
Semi-major
6,840.8 km
B*
6.2477e-4
RAAN
108.4771°
Arg perigee
105.7693°
Mean anomaly
254.3413°
Rev number
5,402

§ Raw data

STARLINK-352001 65855U 25223B   26263.27157554  .00020791  00000+0  62477-3 0  99952 65855  53.1584 108.4771 0000940 105.7693 254.3413 15.34400236 54020

JSON: /api/v1/satellites/65855 · /tle

For live sub-satellite position, see the globe view (requires WebGL).

§ Visibility from observer

Set your observer location to see the next 7 days of passes ≥ 10°. The values pass through the URL so the page stays shareable.

No JS? Fill the form by hand. The geolocation button needs JavaScript.